QPF
0.00 0.00 0.00 0.00 0.00 0.00 0.00 0.00 0.00 0.00 0.00 0.00 0.00 0.00 0.00 0.00 0.00 0.00 0.00 0.00 0.00 0.00 0.00 0.00 0.00 0.00 0.00 0.00 0.00 0.00 0.00 0.00 0.00 0.00 0.00 0.00 0.00 0.00 0.00 0.00 0.00 0.00 0.00
0.00 0.00 0.00 0.00 0.00 0.00 0.00 0.00 0.00 0.00 0.00 0.00 0.00 0.00 0.00 0.00 0.00 0.00 0.00 0.00 0.00 0.00 0.00 0.00 0.00 0.00 0.00 0.00 0.00 0.00 0.00 0.00 0.00 0.00 0.00 0.00 0.00 0.00 0.00 0.00 0.00 0.00 0.00
0.00 0.00 0.00 0.00 0.00 0.00 0.00 0.00 0.00 0.00 0.00 0.00 0.00 0.00 0.00 0.00 0.00 0.00 0.00 0.00 0.00 0.00 0.00 0.00 0.00 0.00 0.00 0.00 0.00 0.00 0.00 0.00 0.00 0.00 0.00 0.00 0.00 0.00 0.00 0.00 0.00 0.00 0.00
0.00 0.00 0.00 0.00 0.00 0.00 0.00 0.00 0.00 0.00 0.00 0.00 0.00 0.00 0.00 0.00 0.00 0.00 0.00 0.00 0.00 0.00 0.00 0.00 0.00 0.00 0.00 0.00 0.00 0.00 0.00 0.00 0.00 0.00 0.00 0.00 0.00 0.00 0.00 0.00 0.00 0.00 0.00
0.00 0.00 0.00 0.00 0.00 0.00 0.00 0.00 0.00 0.00 0.00 0.00 0.00 0.00 0.00 0.00 0.00 0.00 0.00 0.00 0.00 0.00 0.00 0.00 0.00 0.00 0.00 0.00 0.00 0.00 0.00 0.00 0.00 0.00 0.00 0.00 0.00 0.00 0.00 0.00 0.00 0.00 0.00
0.00 0.00 0.00 0.00 0.00 0.00 0.00 0.00 0.00 0.00 0.00 0.00 0.00 0.00 0.00 0.00 0.00 0.00 0.00 0.00 0.00 0.00 0.00 0.00 0.00 0.00 0.00 0.00 0.00 0.00 0.00 0.00 0.00 0.00 0.00 0.00 0.00 0.00 0.00 0.00 0.00 0.00 0.00
0.00 0.00 0.00 0.00 0.00 0.00 0.00 0.00 0.00 0.00 0.00 0.00 0.00 0.00 0.00 0.00 0.00 0.00 0.00 0.00 0.00 0.00 0.00 0.00 0.00 0.00 0.00 0.00 0.00 0.00 0.00 0.00 0.00 0.00 0.00 0.00 0.00 0.00 0.00 0.00 0.00 0.00 0.00
0.00 0.00 0.00 0.00 0.00 0.00 0.00 0.00 0.00 0.00 0.00 0.00 0.00 0.00 0.00 0.00 0.00 0.00 0.00 0.00 0.00 0.00 0.00 0.00 0.00 0.00 0.00 0.00 0.00 0.00 0.00 0.00 0.00 0.00 0.00 0.00 0.00 0.00 0.00 0.00 0.00 0.01 0.00
0.00 0.00 0.00 0.00 0.00 0.00 0.00 0.00 0.00 0.00 0.00 0.00 0.00 0.00 0.00 0.00 0.00 0.00 0.00 0.00 0.00 0.00 0.00 0.00 0.00 0.00 0.00 0.00 0.00 0.00 0.00 0.00 0.00 0.00 0.00 0.00 0.00 0.00 0.00 0.00 0.01 0.01 0.01
0.00 0.00 0.00 0.00 0.00 0.00 0.00 0.00 0.00 0.00 0.00 0.00 0.00 0.00 0.00 0.00 0.00 0.00 0.00 0.00 0.00 0.00 0.00 0.00 0.00 0.00 0.00 0.00 0.00 0.00 0.00 0.00 0.00 0.00 0.00 0.00 0.00 0.00 0.00 0.00 0.00 0.01 0.01
0.00 0.00 0.00 0.00 0.00 0.00 0.00 0.00 0.00 0.00 0.00 0.00 0.00 0.00 0.00 0.00 0.00 0.00 0.00 0.00 0.00 0.00 0.00 0.00 0.00 0.00 0.00 0.00 0.00 0.00 0.00 0.00 0.00 0.00 0.00 0.00 0.00 0.00 0.00 0.00 0.00 0.00 0.01
0.00 0.00 0.00 0.00 0.00 0.00 0.00 0.00 0.00 0.00 0.00 0.00 0.00 0.00 0.00 0.00 0.00 0.00 0.00 0.00 0.00 0.00 0.00 0.00 0.00 0.00 0.00 0.00 0.00 0.00 0.00 0.00 0.00 0.00 0.00 0.00 0.00 0.00 0.00 0.00 0.00 0.00 0.01
0.00 0.00 0.00 0.00 0.00 0.00 0.00 0.00 0.00 0.00 0.00 0.00 0.00 0.00 0.00 0.00 0.00 0.00 0.00 0.00 0.00 0.00 0.00 0.00 0.00 0.00 0.00 0.00 0.00 0.00 0.00 0.00 0.00 0.00 0.00 0.00 0.00 0.00 0.00 0.00 0.00 0.00 0.01
0.00 0.00 0.00 0.00 0.00 0.00 0.00 0.00 0.00 0.00 0.00 0.00 0.00 0.00 0.00 0.00 0.00 0.00 0.00 0.00 0.00 0.00 0.00 0.00 0.00 0.00 0.00 0.00 0.00 0.00 0.00 0.00 0.00 0.00 0.00 0.00 0.00 0.01 0.01 0.01 0.01 0.01 0.01
0.00 0.00 0.00 0.00 0.00 0.00 0.00 0.00 0.00 0.00 0.00 0.00 0.00 0.00 0.00 0.00 0.00 0.00 0.00 0.00 0.00 0.00 0.00 0.00 0.00 0.00 0.00 0.00 0.00 0.00 0.00 0.00 0.00 0.00 0.01 0.01 0.01 0.01 0.02 0.02 0.02 0.03 0.04
0.00 0.00 0.00 0.00 0.00 0.00 0.00 0.00 0.00 0.00 0.00 0.00 0.00 0.00 0.00 0.00 0.00 0.00 0.00 0.00 0.00 0.00 0.00 0.00 0.00 0.00 0.00 0.00 0.00 0.00 0.00 0.01 0.01 0.01 0.01 0.00 0.01 0.01 0.02 0.02 0.03 0.03 0.04
0.00 0.00 0.00 0.00 0.00 0.00 0.00 0.00 0.00 0.00 0.00 0.00 0.00 0.00 0.00 0.00 0.00 0.00 0.00 0.00 0.00 0.00 0.00 0.00 0.00 0.00 0.00 0.00 0.00 0.01 0.01 0.01 0.01 0.00 0.00 0.00 0.00 0.01 0.00 0.01 0.01 0.01 0.02
0.00 0.00 0.00 0.00 0.00 0.00 0.00 0.00 0.00 0.00 0.00 0.00 0.00 0.00 0.00 0.00 0.00 0.00 0.00 0.00 0.00 0.00 0.00 0.00 0.00 0.00 0.00 0.00 0.00 0.01 0.01 0.00 0.00 0.00 0.00 0.00 0.00 0.00 0.01 0.01 0.01 0.01 0.01
0.00 0.00 0.00 0.00 0.00 0.00 0.00 0.00 0.00 0.00 0.00 0.00 0.00 0.00 0.00 0.00 0.00 0.00 0.00 0.00 0.00 0.00 0.00 0.00 0.00 0.00 0.00 0.00 0.00 0.01 0.01 0.00 0.00 0.00 0.00 0.00 0.01 0.01 0.02 0.03 0.02 0.01 0.01
0.00 0.00 0.00 0.00 0.00 0.00 0.00 0.00 0.00 0.00 0.00 0.00 0.00 0.00 0.00 0.00 0.00 0.00 0.00 0.00 0.00 0.00 0.00 0.00 0.00 0.00 0.00 0.00 0.00 0.01 0.01 0.01 0.00 0.00 0.00 0.01 0.01 0.02 0.03 0.03 0.03 0.03 0.01
0.00 0.00 0.00 0.00 0.00 0.00 0.00 0.00 0.00 0.00 0.00 0.00 0.00 0.00 0.00 0.00 0.00 0.00 0.00 0.00 0.00 0.00 0.00 0.00 0.00 0.00 0.00 0.00 0.00 0.01 0.01 0.01 0.02 0.02 0.01 0.01 0.01 0.02 0.03 0.04 0.04 0.04 0.04
0.00 0.00 0.00 0.00 0.00 0.00 0.00 0.00 0.00 0.00 0.00 0.00 0.00 0.00 0.00 0.00 0.00 0.00 0.00 0.00 0.00 0.00 0.00 0.00 0.00 0.00 0.00 0.00 0.00 0.01 0.02 0.03 0.03 0.02 0.01 0.01 0.01 0.03 0.04 0.04 0.03 0.04 0.04
0.00 0.00 0.00 0.00 0.00 0.00 0.00 0.00 0.00 0.00 0.00 0.00 0.00 0.00 0.00 0.00 0.00 0.00 0.00 0.00 0.00 0.00 0.00 0.00 0.00 0.00 0.00 0.00 0.00 0.01 0.01 0.02 0.02 0.01 0.02 0.02 0.03 0.03 0.03 0.02 0.02 0.02 0.02
0.00 0.00 0.00 0.00 0.00 0.00 0.00 0.00 0.00 0.00 0.00 0.00 0.00 0.00 0.00 0.00 0.00 0.00 0.00 0.00 0.00 0.00 0.00 0.01 0.01 0.01 0.00 0.00 0.00 0.01 0.01 0.02 0.02 0.02 0.02 0.02 0.02 0.02 0.01 0.01 0.01 0.00 0.01
0.00 0.00 0.00 0.00 0.00 0.00 0.00 0.00 0.00 0.00 0.00 0.00 0.00 0.00 0.00 0.00 0.00 0.00 0.00 0.00 0.00 0.00 0.01 0.01 0.01 0.02 0.02 0.01 0.02 0.04 0.04 0.04 0.04 0.04 0.04 0.03 0.01 0.01 0.00 0.00 0.00 0.01 0.01
0.00 0.00 0.00 0.00 0.00 0.00 0.00 0.00 0.00 0.00 0.00 0.00 0.00 0.00 0.00 0.00 0.00 0.00 0.00 0.00 0.00 0.00 0.00 0.01 0.01 0.01 0.02 0.02 0.03 0.03 0.03 0.03 0.04 0.05 0.04 0.02 0.01 0.01 0.01 0.01 0.01 0.01 0.01
MSLP
1022.66 1022.64 1022.60 1022.54 1022.45 1022.35 1022.26 1022.18 1022.12 1022.11 1022.15 1022.23 1022.36 1022.50 1022.65 1022.77 1022.84 1022.86 1022.81 1022.71 1022.58 1022.44 1022.31 1022.22 1022.17 1022.15 1022.16 1022.16 1022.13 1022.05 1021.91 1021.69 1021.41 1021.08 1020.72 1020.34 1019.97 1019.62 1019.29 1018.98 1018.71 1018.47 1018.25
1022.77 1022.90 1022.97 1022.97 1022.92 1022.82 1022.71 1022.60 1022.54 1022.54 1022.60 1022.73 1022.89 1023.07 1023.23 1023.34 1023.37 1023.33 1023.22 1023.05 1022.87 1022.70 1022.56 1022.47 1022.43 1022.42 1022.42 1022.42 1022.37 1022.26 1022.08 1021.83 1021.52 1021.16 1020.77 1020.37 1019.96 1019.57 1019.18 1018.81 1018.46 1018.13 1017.84
1022.59 1022.88 1023.08 1023.19 1023.21 1023.15 1023.05 1022.96 1022.92 1022.94 1023.05 1023.22 1023.43 1023.64 1023.81 1023.91 1023.90 1023.80 1023.63 1023.41 1023.18 1022.97 1022.81 1022.71 1022.67 1022.66 1022.65 1022.63 1022.56 1022.42 1022.22 1021.95 1021.62 1021.26 1020.88 1020.47 1020.05 1019.63 1019.19 1018.75 1018.31 1017.89 1017.50
1022.15 1022.61 1022.98 1023.22 1023.33 1023.34 1023.28 1023.23 1023.21 1023.28 1023.43 1023.65 1023.90 1024.13 1024.31 1024.39 1024.36 1024.21 1023.98 1023.71 1023.44 1023.19 1023.01 1022.89 1022.83 1022.81 1022.78 1022.73 1022.64 1022.48 1022.26 1021.99 1021.68 1021.34 1020.97 1020.58 1020.17 1019.73 1019.25 1018.75 1018.23 1017.71 1017.21
1021.58 1022.21 1022.74 1023.11 1023.33 1023.41 1023.42 1023.40 1023.42 1023.52 1023.70 1023.95 1024.23 1024.48 1024.67 1024.73 1024.68 1024.50 1024.23 1023.92 1023.61 1023.34 1023.13 1022.99 1022.90 1022.84 1022.79 1022.71 1022.58 1022.41 1022.19 1021.92 1021.64 1021.33 1021.00 1020.65 1020.26 1019.81 1019.31 1018.75 1018.15 1017.53 1016.92
1020.99 1021.78 1022.45 1022.94 1023.25 1023.41 1023.46 1023.48 1023.52 1023.64 1023.84 1024.10 1024.39 1024.65 1024.84 1024.90 1024.83 1024.64 1024.35 1024.02 1023.69 1023.39 1023.16 1022.98 1022.86 1022.76 1022.67 1022.55 1022.39 1022.20 1021.97 1021.72 1021.47 1021.20 1020.92 1020.61 1020.24 1019.81 1019.29 1018.68 1018.02 1017.32 1016.62
1020.50 1021.40 1022.18 1022.77 1023.16 1023.37 1023.45 1023.49 1023.54 1023.65 1023.84 1024.10 1024.39 1024.65 1024.83 1024.89 1024.82 1024.63 1024.34 1024.01 1023.67 1023.36 1023.10 1022.90 1022.73 1022.59 1022.44 1022.27 1022.08 1021.86 1021.62 1021.39 1021.16 1020.93 1020.69 1020.42 1020.09 1019.67 1019.15 1018.52 1017.81 1017.05 1016.28
1020.15 1021.13 1021.98 1022.64 1023.07 1023.30 1023.40 1023.44 1023.47 1023.57 1023.74 1023.98 1024.24 1024.49 1024.66 1024.73 1024.67 1024.49 1024.22 1023.90 1023.57 1023.26 1022.98 1022.75 1022.54 1022.34 1022.13 1021.91 1021.66 1021.41 1021.16 1020.92 1020.71 1020.51 1020.31 1020.08 1019.77 1019.37 1018.86 1018.23 1017.50 1016.71 1015.90
1019.93 1020.95 1021.84 1022.52 1022.97 1023.22 1023.31 1023.33 1023.36 1023.42 1023.57 1023.77 1024.01 1024.23 1024.40 1024.46 1024.41 1024.25 1024.01 1023.72 1023.40 1023.09 1022.80 1022.54 1022.28 1022.03 1021.76 1021.47 1021.17 1020.88 1020.60 1020.35 1020.14 1019.96 1019.78 1019.56 1019.29 1018.91 1018.41 1017.80 1017.08 1016.29 1015.47
1019.79 1020.82 1021.71 1022.39 1022.84 1023.09 1023.18 1023.20 1023.20 1023.25 1023.36 1023.53 1023.74 1023.93 1024.08 1024.13 1024.09 1023.95 1023.73 1023.46 1023.16 1022.86 1022.56 1022.27 1021.97 1021.65 1021.32 1020.97 1020.62 1020.27 1019.96 1019.68 1019.46 1019.28 1019.11 1018.91 1018.66 1018.30 1017.83 1017.24 1016.55 1015.79 1014.99
1019.65 1020.66 1021.53 1022.20 1022.65 1022.90 1023.00 1023.02 1023.03 1023.06 1023.15 1023.30 1023.46 1023.62 1023.74 1023.78 1023.72 1023.59 1023.38 1023.13 1022.84 1022.54 1022.23 1021.91 1021.57 1021.21 1020.82 1020.41 1020.00 1019.60 1019.25 1018.95 1018.71 1018.51 1018.34 1018.15 1017.91 1017.58 1017.13 1016.58 1015.93 1015.21 1014.47
1019.42 1020.40 1021.24 1021.90 1022.36 1022.63 1022.76 1022.81 1022.84 1022.89 1022.97 1023.08 1023.21 1023.33 1023.40 1023.40 1023.32 1023.17 1022.96 1022.70 1022.42 1022.11 1021.79 1021.45 1021.08 1020.68 1020.24 1019.78 1019.32 1018.88 1018.49 1018.16 1017.89 1017.68 1017.49 1017.31 1017.07 1016.76 1016.35 1015.84 1015.24 1014.58 1013.89
1019.08 1020.02 1020.84 1021.50 1021.97 1022.28 1022.46 1022.57 1022.64 1022.71 1022.80 1022.89 1022.98 1023.04 1023.05 1022.99 1022.87 1022.68 1022.44 1022.17 1021.88 1021.57 1021.24 1020.88 1020.49 1020.05 1019.58 1019.09 1018.60 1018.12 1017.69 1017.33 1017.04 1016.81 1016.61 1016.42 1016.19 1015.90 1015.52 1015.05 1014.50 1013.89 1013.26
1018.63 1019.54 1020.34 1021.00 1021.50 1021.87 1022.12 1022.30 1022.43 1022.54 1022.63 1022.70 1022.75 1022.74 1022.67 1022.54 1022.34 1022.10 1021.83 1021.53 1021.22 1020.91 1020.57 1020.20 1019.80 1019.35 1018.86 1018.35 1017.83 1017.33 1016.88 1016.50 1016.18 1015.93 1015.72 1015.52 1015.29 1015.01 1014.65 1014.22 1013.72 1013.17 1012.59
1018.13 1019.01 1019.80 1020.46 1021.00 1021.42 1021.75 1022.00 1022.19 1022.33 1022.43 1022.48 1022.47 1022.38 1022.23 1022.01 1021.75 1021.44 1021.12 1020.80 1020.48 1020.15 1019.82 1019.45 1019.05 1018.60 1018.10 1017.58 1017.04 1016.53 1016.06 1015.66 1015.32 1015.05 1014.83 1014.61 1014.38 1014.11 1013.78 1013.38 1012.92 1012.41 1011.90
1017.68 1018.52 1019.28 1019.95 1020.52 1020.98 1021.36 1021.67 1021.91 1022.07 1022.16 1022.18 1022.11 1021.95 1021.71 1021.41 1021.06 1020.70 1020.34 1019.99 1019.67 1019.34 1019.02 1018.67 1018.27 1017.83 1017.33 1016.80 1016.26 1015.73 1015.25 1014.82 1014.47 1014.18 1013.93 1013.71 1013.48 1013.21 1012.90 1012.52 1012.10 1011.65 1011.18
1017.33 1018.13 1018.86 1019.51 1020.08 1020.57 1020.98 1021.32 1021.57 1021.74 1021.81 1021.78 1021.64 1021.40 1021.08 1020.71 1020.30 1019.90 1019.51 1019.16 1018.83 1018.53 1018.22 1017.88 1017.50 1017.07 1016.57 1016.04 1015.49 1014.95 1014.44 1014.00 1013.62 1013.31 1013.04 1012.81 1012.57 1012.32 1012.02 1011.67 1011.29 1010.88 1010.47
1017.16 1017.89 1018.57 1019.18 1019.72 1020.20 1020.60 1020.93 1021.17 1021.32 1021.34 1021.25 1021.05 1020.74 1020.36 1019.93 1019.49 1019.06 1018.67 1018.32 1018.01 1017.73 1017.44 1017.13 1016.76 1016.33 1015.84 1015.30 1014.73 1014.17 1013.64 1013.16 1012.76 1012.42 1012.14 1011.90 1011.66 1011.41 1011.14 1010.83 1010.49 1010.13 1009.78
1017.15 1017.81 1018.41 1018.95 1019.44 1019.86 1020.23 1020.51 1020.71 1020.80 1020.77 1020.61 1020.35 1019.99 1019.56 1019.09 1018.63 1018.20 1017.82 1017.49 1017.21 1016.96 1016.70 1016.40 1016.04 1015.61 1015.11 1014.55 1013.96 1013.37 1012.81 1012.31 1011.88 1011.52 1011.22 1010.97 1010.74 1010.50 1010.26 1009.99 1009.70 1009.40 1009.11
1017.28 1017.84 1018.35 1018.80 1019.20 1019.55 1019.84 1020.05 1020.18 1020.20 1020.10 1019.89 1019.57 1019.16 1018.70 1018.22 1017.76 1017.34 1016.99 1016.69 1016.44 1016.20 1015.96 1015.67 1015.32 1014.88 1014.36 1013.78 1013.16 1012.54 1011.95 1011.42 1010.96 1010.58 1010.27 1010.02 1009.80 1009.59 1009.38 1009.16 1008.93 1008.69 1008.47
1017.46 1017.92 1018.33 1018.68 1018.98 1019.24 1019.44 1019.56 1019.60 1019.55 1019.38 1019.10 1018.74 1018.30 1017.83 1017.35 1016.89 1016.50 1016.16 1015.88 1015.65 1015.43 1015.20 1014.91 1014.55 1014.09 1013.56 1012.96 1012.32 1011.67 1011.05 1010.50 1010.02 1009.63 1009.31 1009.06 1008.86 1008.68 1008.51 1008.34 1008.17 1008.00 1007.85
1017.63 1018.00 1018.30 1018.55 1018.75 1018.91 1019.01 1019.05 1019.00 1018.87 1018.64 1018.31 1017.91 1017.45 1016.96 1016.48 1016.04 1015.65 1015.33 1015.07 1014.84 1014.62 1014.38 1014.08 1013.70 1013.23 1012.68 1012.07 1011.41 1010.75 1010.13 1009.56 1009.08 1008.68 1008.36 1008.12 1007.93 1007.78 1007.66 1007.54 1007.44 1007.34 1007.25
1017.73 1018.01 1018.22 1018.38 1018.49 1018.55 1018.57 1018.52 1018.40 1018.19 1017.90 1017.53 1017.10 1016.62 1016.13 1015.64 1015.20 1014.82 1014.49 1014.22 1013.98 1013.74 1013.48 1013.16 1012.77 1012.29 1011.74 1011.12 1010.47 1009.82 1009.20 1008.64 1008.16 1007.77 1007.46 1007.23 1007.06 1006.94 1006.85 1006.78 1006.72 1006.69 1006.67
1017.72 1017.92 1018.06 1018.14 1018.17 1018.16 1018.10 1017.98 1017.79 1017.53 1017.20 1016.79 1016.33 1015.83 1015.32 1014.83 1014.38 1013.98 1013.63 1013.32 1013.05 1012.78 1012.49 1012.15 1011.75 1011.28 1010.74 1010.15 1009.52 1008.90 1008.31 1007.78 1007.32 1006.94 1006.64 1006.42 1006.26 1006.15 1006.09 1006.05 1006.04 1006.06 1006.09
1017.59 1017.73 1017.80 1017.83 1017.80 1017.72 1017.60 1017.43 1017.19 1016.88 1016.51 1016.07 1015.59 1015.07 1014.55 1014.04 1013.56 1013.12 1012.73 1012.38 1012.07 1011.76 1011.44 1011.09 1010.69 1010.24 1009.73 1009.18 1008.61 1008.05 1007.51 1007.01 1006.58 1006.21 1005.92 1005.70 1005.55 1005.44 1005.39 1005.37 1005.39 1005.44 1005.51
1017.36 1017.44 1017.46 1017.43 1017.35 1017.23 1017.05 1016.83 1016.55 1016.20 1015.80 1015.35 1014.84 1014.31 1013.76 1013.23 1012.71 1012.24 1011.80 1011.40 1011.04 1010.70 1010.35 1010.00 1009.61 1009.20 1008.75 1008.27 1007.77 1007.28 1006.80 1006.36 1005.96 1005.61 1005.32 1005.09 1004.92 1004.80 1004.74 1004.72 1004.75 1004.82 1004.92
Thickness
5663 5662 5659 5657 5655 5653 5650 5647 5644 5640 5636 5631 5626 5622 5618 5615 5612 5610 5607 5605 5602 5599 5597 5594 5591 5589 5586 5583 5581 5578 5576 5574 5572 5570 5572 5575 5576 5576 5575 5573 5572 5570 5569
5657 5655 5653 5649 5647 5644 5642 5639 5636 5633 5630 5625 5620 5615 5611 5608 5605 5602 5600 5597 5594 5592 5589 5586 5583 5580 5577 5574 5571 5568 5565 5564 5560 5556 5556 5559 5564 5564 5566 5563 5561 5559 5557
5654 5650 5646 5643 5639 5637 5634 5633 5629 5626 5622 5618 5613 5608 5603 5599 5596 5593 5590 5588 5586 5583 5580 5577 5574 5571 5568 5565 5562 5558 5554 5551 5549 5544 5539 5539 5545 5547 5553 5552 5550 5547 5544
5651 5646 5642 5637 5633 5630 5628 5625 5622 5618 5614 5611 5606 5600 5594 5590 5587 5583 5581 5579 5577 5574 5571 5568 5565 5562 5558 5555 5552 5549 5544 5540 5537 5533 5529 5526 5525 5524 5534 5537 5535 5533 5531
5649 5644 5638 5634 5629 5624 5620 5617 5614 5610 5606 5602 5597 5592 5586 5582 5578 5575 5572 5570 5567 5564 5561 5558 5555 5552 5548 5545 5541 5537 5533 5528 5525 5521 5518 5514 5510 5506 5506 5517 5519 5518 5516
5644 5639 5633 5628 5623 5617 5613 5609 5606 5602 5598 5593 5589 5583 5578 5573 5569 5566 5563 5560 5557 5555 5552 5548 5545 5541 5537 5534 5530 5526 5522 5518 5513 5509 5505 5501 5497 5494 5490 5495 5499 5500 5502
5640 5633 5627 5622 5617 5611 5606 5602 5598 5593 5589 5585 5580 5575 5570 5565 5561 5557 5553 5550 5546 5544 5541 5538 5534 5530 5527 5523 5519 5515 5510 5506 5501 5497 5493 5489 5486 5482 5478 5477 5482 5484 5486
5636 5631 5625 5619 5612 5606 5600 5595 5590 5586 5581 5576 5571 5566 5562 5556 5552 5548 5543 5539 5536 5533 5531 5527 5523 5519 5515 5511 5507 5503 5498 5494 5489 5485 5481 5477 5473 5468 5463 5459 5458 5464 5470
5632 5626 5620 5614 5607 5600 5595 5589 5583 5578 5572 5567 5562 5557 5552 5547 5543 5538 5534 5530 5526 5523 5520 5516 5512 5508 5503 5499 5494 5490 5485 5481 5476 5472 5467 5463 5459 5454 5449 5444 5438 5434 5443
5626 5621 5615 5608 5602 5595 5588 5582 5576 5570 5564 5559 5553 5548 5543 5538 5533 5528 5524 5520 5516 5512 5508 5504 5500 5495 5491 5486 5481 5477 5472 5467 5463 5457 5453 5448 5444 5439 5433 5427 5422 5417 5415
5624 5617 5610 5603 5595 5588 5581 5574 5568 5562 5556 5550 5544 5539 5533 5528 5523 5518 5514 5510 5506 5501 5497 5492 5488 5483 5478 5473 5468 5464 5459 5454 5449 5443 5438 5433 5427 5422 5417 5411 5406 5401 5396
5619 5611 5603 5594 5586 5579 5573 5566 5560 5554 5547 5541 5535 5529 5523 5518 5513 5508 5504 5499 5494 5490 5485 5480 5475 5470 5466 5460 5455 5450 5445 5439 5434 5429 5422 5417 5411 5406 5400 5394 5389 5385 5380
5610 5601 5593 5586 5579 5572 5565 5558 5551 5545 5538 5532 5525 5519 5513 5508 5503 5498 5493 5488 5483 5478 5473 5467 5462 5457 5452 5447 5442 5437 5432 5426 5420 5413 5407 5401 5395 5390 5383 5377 5373 5368 5366
5603 5594 5585 5578 5571 5564 5557 5549 5542 5536 5529 5522 5515 5509 5503 5498 5493 5488 5482 5477 5471 5466 5461 5455 5449 5444 5439 5434 5429 5423 5418 5412 5406 5399 5392 5386 5379 5373 5367 5362 5357 5353 5350
5594 5587 5578 5569 5561 5553 5546 5540 5533 5526 5520 5512 5506 5500 5494 5488 5483 5477 5471 5466 5459 5454 5448 5442 5437 5431 5425 5420 5415 5410 5405 5398 5393 5386 5378 5370 5363 5358 5352 5348 5344 5339 5336
5587 5579 5570 5561 5552 5544 5537 5530 5523 5517 5510 5502 5496 5490 5484 5478 5472 5466 5460 5454 5448 5442 5435 5429 5423 5418 5412 5407 5401 5396 5391 5385 5377 5370 5363 5355 5349 5343 5339 5336 5332 5328 5324
5579 5570 5562 5553 5545 5536 5529 5521 5514 5506 5498 5491 5485 5479 5473 5467 5461 5455 5448 5441 5435 5429 5423 5416 5410 5404 5398 5392 5388 5382 5376 5369 5361 5353 5346 5340 5335 5330 5324 5322 5320 5317 5313
5569 5560 5551 5542 5534 5526 5518 5510 5502 5495 5487 5480 5474 5468 5462 5456 5449 5442 5436 5429 5423 5416 5410 5404 5397 5391 5385 5378 5373 5367 5361 5354 5346 5337 5330 5325 5322 5316 5312 5311 5311 5309 5307
5558 5549 5540 5531 5522 5514 5507 5499 5491 5483 5475 5469 5463 5457 5450 5444 5437 5430 5424 5417 5411 5404 5397 5391 5384 5376 5371 5364 5357 5351 5346 5339 5332 5325 5318 5313 5310 5308 5306 5305 5304 5303 5302
5544 5535 5527 5519 5510 5503 5495 5487 5479 5471 5464 5459 5453 5446 5439 5432 5425 5418 5412 5405 5397 5391 5385 5378 5370 5362 5355 5349 5342 5335 5329 5325 5320 5315 5310 5305 5302 5302 5301 5298 5296 5297 5297
5531 5524 5515 5506 5498 5490 5482 5474 5466 5459 5454 5448 5441 5434 5427 5419 5413 5406 5399 5391 5385 5378 5371 5365 5359 5349 5341 5335 5328 5321 5314 5310 5308 5306 5302 5298 5296 5295 5295 5294 5292 5292 5293
5518 5510 5501 5492 5485 5477 5470 5462 5455 5450 5444 5437 5430 5423 5415 5407 5401 5393 5386 5377 5369 5362 5356 5350 5345 5338 5329 5321 5315 5310 5305 5301 5298 5296 5294 5291 5291 5291 5290 5289 5288 5288 5288
5504 5496 5488 5479 5471 5464 5457 5449 5445 5439 5432 5424 5417 5410 5403 5395 5387 5378 5371 5364 5354 5346 5341 5334 5330 5327 5320 5311 5304 5300 5296 5292 5289 5288 5287 5287 5287 5286 5284 5282 5282 5282 5279
5489 5482 5474 5466 5459 5452 5445 5439 5433 5427 5419 5412 5405 5398 5391 5384 5376 5366 5357 5348 5340 5331 5325 5319 5316 5313 5308 5300 5295 5290 5287 5285 5282 5280 5280 5281 5281 5279 5278 5277 5274 5272 5271
5475 5467 5460 5453 5446 5440 5434 5427 5421 5414 5406 5399 5393 5386 5378 5370 5363 5355 5345 5336 5328 5316 5311 5307 5301 5297 5296 5292 5288 5284 5281 5278 5276 5276 5275 5274 5272 5271 5270 5269 5268 5267 5267
5461 5453 5447 5440 5434 5428 5422 5416 5409 5401 5394 5387 5381 5373 5365 5357 5349 5342 5337 5330 5318 5312 5303 5296 5290 5287 5284 5283 5280 5277 5274 5272 5271 5268 5266 5264 5263 5263 5264 5264 5264 5263 5262